| time (UTC) | temp F | wind direction | speed knots | gust knots | rain 1hr in | rain 24hr in | rain mn in | humidity % | barometer mb |
| 20260509075630 | 44 | 117 | 0.0 | 1.7 | 0.00 | 0.00 | 0.00 | 68 | 1005.8 |
| 20260509074630 | 45 | 194 | 0.0 | 1.7 | 0.00 | 0.00 | 0.00 | 65 | 1005.8 |
| 20260509073629 | 45 | 74 | 0.0 | 1.7 | 0.00 | 0.00 | 0.00 | 64 | 1005.9 |
| 20260509072628 | 44 | 126 | 0.0 | 1.7 | 0.00 | 0.00 | 0.00 | 67 | 1005.7 |
| 20260509071627 | 45 | 186 | 0.0 | 2.6 | 0.00 | 0.00 | 0.00 | 66 | 1005.8 |
| 20260509070622 | 44 | 145 | 0.0 | 2.6 | 0.00 | 0.00 | 0.00 | 71 | 1005.9 |
| 20260509065619 | 41 | 111 | 0.0 | 0.0 | 0.00 | 0.00 | 0.00 | 80 | 1006.1 |
| 20260509064619 | 40 | 111 | 0.0 | 0.0 | 0.00 | 0.00 | 0.00 | 79 | 1006.2 |
| 20260509063619 | 41 | 111 | 0.0 | 0.9 | 0.00 | 0.00 | 0.00 | 78 | 1006.3 |
| 20260509062619 | 43 | 111 | 0.0 | 0.9 | 0.00 | 0.00 | 0.00 | 78 | 1006.2 |
| 20260509061619 | 43 | 145 | 0.9 | 1.7 | 0.00 | 0.00 | 0.00 | 76 | 1006.3 |
| 20260509060614 | 42 | 120 | 0.0 | 1.7 | 0.00 | 0.00 | 0.00 | 77 | 1006.3 |
| 20260509055611 | 43 | 114 | 0.0 | 0.0 | 0.00 | 0.00 | 0.00 | 76 | 1006.5 |
| 20260509054610 | 44 | 126 | 0.0 | 1.7 | 0.00 | 0.00 | 0.00 | 74 | 1006.9 |
| 20260509053606 | 42 | 106 | 0.0 | 0.0 | 0.00 | 0.00 | 0.00 | 75 | 1006.8 |
| 20260509052601 | 44 | 120 | 0.0 | 0.0 | 0.00 | 0.00 | 0.00 | 72 | 1006.8 |
| 20260509051556 | 44 | 154 | 0.0 | 0.9 | 0.00 | 0.00 | 0.00 | 76 | 1006.7 |
| 20260509050555 | 44 | 131 | 0.0 | 0.9 | 0.00 | 0.00 | 0.00 | 78 | 1006.8 |
| 20260509045550 | 44 | 144 | 0.0 | 0.0 | 0.00 | 0.00 | 0.00 | 78 | 1006.8 |
| 20260509044549 | 44 | 144 | 0.0 | 0.0 | 0.00 | 0.00 | 0.00 | 76 | 1006.7 |
| 20260509043549 | 44 | 160 | 0.0 | 0.9 | 0.00 | 0.00 | 0.00 | 78 | 1007.0 |
| 20260509042547 | 44 | 114 | 0.0 | 0.9 | 0.00 | 0.00 | 0.00 | 75 | 1007.2 |
| 20260509041546 | 45 | 120 | 0.0 | 0.0 | 0.00 | 0.00 | 0.00 | 72 | 1007.1 |
| 20260509040542 | 45 | 120 | 0.0 | 0.0 | 0.00 | 0.00 | 0.00 | 72 | 1007.3 |
| 20260509035541 | 44 | 120 | 0.0 | 0.0 | 0.00 | 0.00 | 0.00 | 73 | 1007.3 |
| 20260509034536 | 46 | 120 | 0.0 | 0.0 | 0.00 | 0.00 | 0.00 | 70 | 1007.3 |
| 20260509033535 | 47 | 114 | 0.0 | 0.0 | 0.00 | 0.00 | 0.00 | 68 | 1007.5 |
| 20260509032535 | 48 | 114 | 0.0 | 0.9 | 0.00 | 0.00 | 0.00 | 68 | 1007.5 |
| 20260509031535 | 48 | 114 | 0.0 | 0.0 | 0.00 | 0.00 | 0.00 | 66 | 1007.7 |
| 20260509030531 | 48 | 114 | 0.0 | 0.9 | 0.00 | 0.00 | 0.00 | 66 | 1008.0 |
| 20260509025529 | 49 | 120 | 0.0 | 0.9 | 0.00 | 0.00 | 0.00 | 63 | 1007.9 |
| 20260509024526 | 48 | 106 | 0.0 | 0.0 | 0.00 | 0.00 | 0.00 | 62 | 1007.9 |
| 20260509023526 | 50 | 157 | 0.0 | 0.0 | 0.00 | 0.00 | 0.00 | 59 | 1007.9 |
| 20260509022525 | 51 | 157 | 0.0 | 1.7 | 0.00 | 0.00 | 0.00 | 54 | 1008.0 |
| 20260509021520 | 50 | 195 | 0.0 | 0.0 | 0.00 | 0.00 | 0.00 | 54 | 1007.9 |
| 20260509020515 | 50 | 195 | 0.0 | 0.0 | 0.00 | 0.00 | 0.00 | 53 | 1008.0 |
| 20260509015511 | 51 | 195 | 0.0 | 0.0 | 0.00 | 0.00 | 0.00 | 51 | 1008.0 |
| 20260509014510 | 53 | 195 | 0.0 | 0.0 | 0.00 | 0.00 | 0.00 | 49 | 1007.7 |
| 20260509013509 | 53 | 195 | 0.0 | 0.0 | 0.00 | 0.00 | 0.00 | 47 | 1007.8 |
| 20260509012508 | 54 | 195 | 0.0 | 0.0 | 0.00 | 0.00 | 0.00 | 46 | 1007.8 |
| 20260509011502 | 55 | 180 | 0.0 | 0.0 | 0.00 | 0.00 | 0.00 | 46 | 1007.7 |
| 20260509010457 | 55 | 228 | 0.0 | 1.7 | 0.00 | 0.00 | 0.00 | 44 | 1007.6 |
| 20260509005452 | 57 | 225 | 1.7 | 1.7 | 0.00 | 0.00 | 0.00 | 43 | 1007.6 |
| 20260509004448 | 58 | 243 | 0.0 | 2.6 | 0.00 | 0.00 | 0.00 | 42 | 1007.5 |
| 20260509003444 | 59 | 270 | 0.0 | 2.6 | 0.00 | 0.00 | 0.00 | 41 | 1007.4 |
| 20260509002444 | 60 | 246 | 0.0 | 3.5 | 0.00 | 0.00 | 0.00 | 39 | 1007.3 |
| 20260509001443 | 61 | 240 | 3.5 | 4.3 | 0.00 | 0.00 | 0.00 | 37 | 1007.4 |
| 20260509000440 | 62 | 312 | 1.7 | 7.0 | 0.00 | 0.00 | 0.00 | 37 | 1007.3 |
| 20260508235438 | 63 | 270 | 1.7 | 5.2 | 0.00 | 0.00 | 0.00 | 37 | 1007.3 |
| 20260508234437 | 64 | 74 | 0.0 | 2.6 | 0.00 | 0.00 | 0.00 | 36 | 1007.3 |
| 20260508233434 | 63 | 251 | 2.6 | 9.6 | 0.00 | 0.00 | 0.00 | 38 | 1007.4 |
| 20260508232433 | 64 | 253 | 2.6 | 7.0 | 0.00 | 0.00 | 0.00 | 37 | 1007.4 |
| 20260508231433 | 64 | 232 | 4.3 | 6.1 | 0.00 | 0.00 | 0.00 | 36 | 1007.4 |
| 20260508230432 | 62 | 278 | 2.6 | 5.2 | 0.00 | 0.00 | 0.00 | 39 | 1007.2 |
| 20260508225432 | 61 | 244 | 0.0 | 3.5 | 0.00 | 0.00 | 0.00 | 39 | 1007.5 |
| 20260508224427 | 64 | 262 | 4.3 | 6.1 | 0.00 | 0.00 | 0.00 | 37 | 1007.2 |
| 20260508223422 | 64 | 270 | 4.3 | 7.0 | 0.00 | 0.00 | 0.00 | 35 | 1007.7 |
| 20260508222422 | 65 | 248 | 1.7 | 4.3 | 0.00 | 0.00 | 0.00 | 34 | 1007.7 |
| 20260508221420 | 64 | 114 | 0.9 | 6.1 | 0.00 | 0.00 | 0.00 | 37 | 1007.8 |
| 20260508220419 | 64 | 219 | 2.6 | 7.0 | 0.00 | 0.00 | 0.00 | 36 | 1007.6 |
| 20260508215418 | 65 | 183 | 2.6 | 4.3 | 0.00 | 0.00 | 0.00 | 36 | 1007.7 |
| 20260508214418 | 65 | 241 | 4.3 | 7.0 | 0.00 | 0.00 | 0.00 | 36 | 1007.8 |
| 20260508213418 | 65 | 147 | 4.3 | 7.8 | 0.00 | 0.00 | 0.00 | 37 | 1007.9 |
| 20260508212416 | 65 | 225 | 0.0 | 11.3 | 0.00 | 0.00 | 0.00 | 37 | 1007.8 |
| 20260508211413 | 64 | 285 | 1.7 | 7.8 | 0.00 | 0.00 | 0.00 | 38 | 1008.0 |
| 20260508210413 | 64 | 130 | 3.5 | 8.7 | 0.00 | 0.00 | 0.00 | 35 | 1008.0 |
| 20260508205413 | 65 | 141 | 0.0 | 4.3 | 0.00 | 0.00 | 0.00 | 37 | 1008.2 |
| 20260508204412 | 64 | 256 | 2.6 | 4.3 | 0.00 | 0.00 | 0.00 | 37 | 1008.1 |
| 20260508203410 | 64 | 260 | 3.5 | 10.4 | 0.00 | 0.00 | 0.00 | 36 | 1008.4 |
| 20260508202409 | 64 | 310 | 6.1 | 7.8 | 0.00 | 0.00 | 0.00 | 40 | 1008.4 |
| 20260508201408 | 63 | 90 | 0.9 | 5.2 | 0.00 | 0.00 | 0.00 | 34 | 1008.7 |
| 20260508200408 | 66 | 277 | 2.6 | 4.3 | 0.00 | 0.00 | 0.00 | 38 | 1008.7 |
| 20260508195406 | 64 | 225 | 2.6 | 7.0 | 0.00 | 0.00 | 0.00 | 41 | 1008.8 |
| 20260508194406 | 63 | 260 | 4.3 | 7.8 | 0.00 | 0.00 | 0.00 | 36 | 1009.2 |
| 20260508193405 | 64 | 209 | 3.5 | 3.5 | 0.00 | 0.00 | 0.00 | 42 | 1009.2 |
| 20260508192404 | 64 | 237 | 2.6 | 7.8 | 0.00 | 0.00 | 0.00 | 42 | 1009.3 |
| 20260508191359 | 64 | 214 | 1.7 | 6.1 | 0.00 | 0.00 | 0.00 | 36 | 1009.5 |
| 20260508190358 | 63 | 275 | 2.6 | 8.7 | 0.00 | 0.00 | 0.00 | 40 | 1009.7 |
| 20260508185358 | 61 | 141 | 1.7 | 6.1 | 0.00 | 0.00 | 0.00 | 41 | 1009.7 |
| 20260508184353 | 62 | 173 | 1.7 | 7.8 | 0.00 | 0.00 | 0.00 | 43 | 1010.0 |
| 20260508183351 | 61 | 195 | 4.3 | 6.1 | 0.00 | 0.00 | 0.00 | 38 | 1010.1 |
| 20260508182350 | 63 | 231 | 1.7 | 4.3 | 0.00 | 0.00 | 0.00 | 38 | 1010.1 |
| 20260508181349 | 63 | 209 | 3.5 | 9.6 | 0.00 | 0.00 | 0.00 | 41 | 1010.2 |
| 20260508180348 | 62 | 175 | 1.7 | 8.7 | 0.00 | 0.00 | 0.00 | 47 | 1010.4 |
| 20260508175347 | 60 | 279 | 4.3 | 7.8 | 0.00 | 0.00 | 0.00 | 41 | 1010.9 |
| 20260508174342 | 59 | 213 | 1.7 | 8.7 | 0.00 | 0.00 | 0.00 | 42 | 1011.0 |
| 20260508173342 | 61 | 156 | 2.6 | 7.0 | 0.00 | 0.00 | 0.00 | 40 | 1011.2 |
| 20260508172341 | 60 | 0 | 2.6 | 9.6 | 0.00 | 0.00 | 0.00 | 40 | 1011.2 |
| 20260508171339 | 59 | 235 | 5.2 | 9.6 | 0.00 | 0.00 | 0.00 | 42 | 1011.6 |
| 20260508170334 | 59 | 270 | 1.7 | 7.0 | 0.00 | 0.00 | 0.00 | 41 | 1011.7 |
| 20260508165333 | 60 | 206 | 2.6 | 6.1 | 0.00 | 0.00 | 0.00 | 42 | 1011.8 |
| 20260508164331 | 60 | 83 | 2.6 | 8.7 | 0.00 | 0.00 | 0.00 | 44 | 1012.0 |
| 20260508163327 | 59 | 239 | 4.3 | 9.6 | 0.00 | 0.00 | 0.00 | 45 | 1011.9 |
| 20260508162325 | 59 | 225 | 2.6 | 7.0 | 0.00 | 0.00 | 0.00 | 50 | 1012.1 |
| 20260508161325 | 59 | 66 | 0.0 | 3.5 | 0.00 | 0.00 | 0.00 | 42 | 1012.1 |
| 20260508160321 | 59 | 255 | 4.3 | 6.1 | 0.00 | 0.00 | 0.00 | 46 | 1012.2 |
| 20260508155321 | 58 | 270 | 2.6 | 8.7 | 0.00 | 0.00 | 0.00 | 49 | 1012.1 |
| 20260508154315 | 59 | 254 | 0.0 | 6.1 | 0.00 | 0.00 | 0.00 | 48 | 1012.2 |
| 20260508153314 | 57 | 239 | 4.3 | 7.8 | 0.00 | 0.00 | 0.00 | 50 | 1012.5 |
| 20260508152312 | 57 | 180 | 0.9 | 7.8 | 0.00 | 0.00 | 0.00 | 48 | 1012.4 |
| 20260508151311 | 56 | 254 | 4.3 | 6.1 | 0.00 | 0.00 | 0.00 | 49 | 1012.3 |
| 20260508150310 | 57 | 253 | 5.2 | 7.0 | 0.00 | 0.00 | 0.00 | 52 | 1012.7 |
| 20260508145308 | 56 | 244 | 2.6 | 8.7 | 0.00 | 0.00 | 0.00 | 53 | 1012.6 |
| 20260508144303 | 55 | 239 | 3.5 | 7.8 | 0.00 | 0.00 | 0.00 | 54 | 1012.7 |
| 20260508143303 | 56 | 229 | 3.5 | 4.3 | 0.00 | 0.00 | 0.00 | 59 | 1012.9 |
| 20260508142306 | 57 | 206 | 1.7 | 2.6 | 0.00 | 0.00 | 0.00 | 57 | 1012.9 |
| 20260508141302 | 57 | 270 | 2.6 | 3.5 | 0.00 | 0.00 | 0.00 | 58 | 1012.8 |
| 20260508140302 | 54 | 245 | 4.3 | 7.8 | 0.00 | 0.00 | 0.00 | 61 | 1013.0 |
| 20260508135300 | 55 | 160 | 0.9 | 3.5 | 0.00 | 0.00 | 0.00 | 61 | 1013.1 |
| 20260508134259 | 54 | 195 | 0.9 | 3.5 | 0.00 | 0.00 | 0.00 | 62 | 1013.1 |
| 20260508133259 | 54 | 53 | 0.0 | 4.3 | 0.00 | 0.00 | 0.00 | 64 | 1013.0 |
| 20260508132259 | 52 | 254 | 0.0 | 4.3 | 0.00 | 0.00 | 0.00 | 66 | 1013.0 |
| 20260508131257 | 53 | 172 | 1.7 | 2.6 | 0.00 | 0.00 | 0.00 | 66 | 1013.1 |
| 20260508130258 | 51 | 187 | 0.0 | 2.6 | 0.00 | 0.00 | 0.00 | 73 | 1013.4 |
| 20260508125255 | 49 | 150 | 0.0 | 3.5 | 0.00 | 0.00 | 0.00 | 76 | 1013.5 |
| 20260508124250 | 48 | 170 | 0.0 | 3.5 | 0.00 | 0.00 | 0.00 | 77 | 1013.3 |
| 20260508123246 | 48 | 169 | 1.7 | 2.6 | 0.00 | 0.00 | 0.00 | 82 | 1013.3 |
| 20260508122245 | 46 | 133 | 2.6 | 3.5 | 0.00 | 0.00 | 0.00 | 85 | 1013.1 |
| 20260508121241 | 44 | 120 | 1.7 | 4.3 | 0.00 | 0.00 | 0.00 | 89 | 1013.1 |
| 20260508120236 | 43 | 174 | 0.0 | 2.6 | 0.00 | 0.00 | 0.00 | 96 | 1013.1 |
| 20260508115231 | 41 | 123 | 2.6 | 2.6 | 0.00 | 0.00 | 0.00 | 98 | 1012.9 |
| 20260508114229 | 41 | 169 | 0.9 | 1.7 | 0.00 | 0.00 | 0.00 | 99 | 1012.9 |
| 20260508113225 | 38 | 138 | 0.0 | 2.6 | 0.00 | 0.00 | 0.00 | 99 | 1012.7 |
| 20260508112223 | 38 | 160 | 0.9 | 1.7 | 0.00 | 0.00 | 0.00 | 99 | 1012.6 |
| 20260508111218 | 36 | 131 | 0.0 | 2.6 | 0.00 | 0.00 | 0.00 | 99 | 1012.5 |
| 20260508110218 | 35 | 120 | 0.0 | 0.9 | 0.00 | 0.00 | 0.00 | 99 | 1012.6 |
| 20260508105215 | 32 | 97 | 0.9 | 0.9 | 0.00 | 0.00 | 0.00 | 99 | 1012.9 |
| 20260508104214 | 30 | 82 | 0.0 | 0.9 | 0.00 | 0.00 | 0.00 | 99 | 1012.9 |
| 20260508103209 | 32 | 54 | 0.9 | 0.9 | 0.00 | 0.00 | 0.00 | 99 | 1012.6 |
| 20260508102204 | 30 | 66 | 0.0 | 0.0 | 0.00 | 0.00 | 0.00 | 99 | 1012.8 |
| 20260508101205 | 30 | 90 | 0.0 | 0.9 | 0.00 | 0.00 | 0.00 | 99 | 1013.0 |
| 20260508100200 | 31 | 66 | 0.9 | 1.7 | 0.00 | 0.00 | 0.00 | 99 | 1012.9 |
| 20260508095159 | 32 | 70 | 0.0 | 1.7 | 0.00 | 0.00 | 0.00 | 99 | 1012.8 |
| 20260508094158 | 33 | 195 | 0.0 | 0.0 | 0.00 | 0.00 | 0.00 | 99 | 1012.9 |
| 20260508093153 | 31 | 83 | 0.0 | 0.0 | 0.00 | 0.00 | 0.00 | 99 | 1013.0 |
| 20260508092149 | 33 | 123 | 0.9 | 1.7 | 0.00 | 0.00 | 0.00 | 99 | 1013.0 |
| 20260508091149 | 32 | 77 | 0.0 | 0.0 | 0.00 | 0.00 | 0.00 | 98 | 1013.1 |
| 20260508090143 | 34 | 192 | 0.0 | 0.0 | 0.00 | 0.00 | 0.00 | 99 | 1013.0 |
| 20260508085143 | 32 | 192 | 0.0 | 0.0 | 0.00 | 0.00 | 0.00 | 98 | 1012.9 |
| 20260508084142 | 34 | 192 | 0.0 | 0.0 | 0.00 | 0.00 | 0.00 | 98 | 1013.2 |
| 20260508083137 | 35 | 180 | 0.0 | 1.7 | 0.00 | 0.00 | 0.00 | 98 | 1013.1 |
| 20260508082135 | 34 | 35 | 0.0 | 0.0 | 0.00 | 0.00 | 0.00 | 98 | 1013.0 |
| 20260508081135 | 33 | 35 | 0.0 | 0.0 | 0.00 | 0.00 | 0.00 | 97 | 1013.0 |